Location: Bucquoy
(50.1391°N, 2.7097°E)
Time: 23:54:33
(UTC+00:00)

Cosmos 1535 Rocket - Pass Details

Date: 06 May 2021
Orbit: 949 x 1003 km, 83.0° (Epoch: 21 June)

Event Time Altitude Azimuth Distance (km) Brightness Sun altitude
Rises 00:52:59 0° 349° (N) 3,657 8.5 -21.7°
Reaches altitude 10° 00:55:29 10° 349° (N) 2,713 7.7 -21.6°
Maximum altitude 01:01:42 84° 263° (W) 986 4.4 -21.2°
Enters shadow 01:04:25 37° 178° (S) 1,484 5.0 -21.1°
